Location: Altoona
(40.5167°N, 78.4000°W)
Time: 00:49:09
(UTC-04:00)

Cosmos 1025 Rocket - Pass Details

Date: 21 August 2017
Orbit: 594 x 619 km, 82.5° (Epoch: 23 September)

Event Time Altitude Azimuth Distance (km) Brightness Sun altitude
Rises 21:15:10 0° 360° (N) 2,843 6.9 -13.6°
Reaches altitude 10° 21:17:30 10° 8° (N) 1,936 5.9 -14.0°
Maximum altitude 21:21:30 38° 78° (ENE) 907 3.5 -14.7°
Enters shadow 21:23:17 26° 127° (SE) 1,183 3.9 -15.0°
